[[{"header":{"parameterUnit":"m.s-1","parameterCategory":1,"la1":30.2991,"la2":30.254,"lo1":-89.0895,"lo2":-89.0444,"dy":0.0017,"dx":0.0017,"nx":28,"ny":28,"refTime":"2024-05-16T09:00:00:Z","depth":0,"parameterNumber":2,"parameterNumberName":"U-component_of_WINDS"},"data":[0,0,0,0,0,0,0,0,0,0,0,0,0,0,0,0,0,0,0,0,0,0,0,0,0,0,0,0,0,0,0,0,0,0,0,0,0,0,0,0,0,0,0,0,0,0,0,0,0,0,0,0,0,0,0,0,0,0,-3.1246,-3.1245,0,-3.1215,-3.1214,-3.1214,-3.1121,-3.1119,-3.1117,-3.1115,-3.1086,-3.1087,-3.1088,0,0,0,0,0,0,0,0,0,0,0,0,0,-3.1228,-3.1229,-3.1246,-3.1245,-3.1245,-3.1215,-3.1214,-3.1214,-3.1122,-3.1119,-3.1117,-3.1114,-3.1085,-3.1087,-3.1088,0,0,0,0,0,0,0,0,0,0,0,0,0,-3.122,-3.1229,-3.1246,-3.1195,-3.119,-3.1215,-3.1214,-3.1214,-3.1122,-3.1119,-3.1116,-3.1113,-3.1085,-3.1086,-3.1088,-3.116,0,0,-3.1093,-3.1094,0,0,0,0,0,0,0,0,-3.1221,-3.1221,-3.1203,-3.1199,-3.1193,-3.1169,-3.1197,-3.1196,-3.1123,-3.1148,-3.1115,-3.1112,-3.1116,-3.1115,-3.1116,-3.1158,-3.1157,-3.1093,-3.1094,-3.1095,-3.1095,0,0,0,0,0,0,0,-3.1221,-3.1222,-3.1233,-3.1203,-3.1197,-3.1175,-3.117,-3.1196,-3.115,-3.1146,-3.1139,-3.1136,-3.1113,-3.1114,-3.1114,-3.1156,-3.1093,-3.1095,-3.1096,-3.1096,-3.1257,-3.126,0,0,0,0,0,0,-3.1229,-3.1223,-3.1234,-3.1233,-3.12,-3.1178,-3.1173,-3.118,-3.1149,-3.1141,-3.1139,-3.1132,-3.1113,-3.1112,-3.1113,-3.1195,-3.1095,-3.1097,-3.1098,-3.1254,-3.1258,-3.1262,0,0,0,0,0,0,-3.1229,-3.1231,-3.1236,-3.1226,-3.1225,-3.1181,-3.119,-3.1181,-3.1182,-3.1144,-3.1135,-3.1149,-3.1111,-3.1111,-3.1149,-3.1193,-3.1097,-3.1099,-3.125,-3.1255,-3.126,-3.136,0,0,0,0,0,0,-3.1229,-3.1231,-3.1257,-3.1227,-3.1226,-3.1272,-3.1193,-3.1182,-3.1185,-3.1176,-3.1151,-3.1144,-3.1108,-3.1147,-3.115,-3.1193,-3.11,-3.1246,-3.1252,-3.1258,-3.1353,-3.1368,-3.1381,0,0,0,0,0,-3.1228,-3.1287,-3.1259,-3.1261,-3.1257,-3.1274,-3.1273,-3.123,-3.1189,-3.1215,-3.1191,-3.1145,-3.1188,-3.1151,-3.1155,-3.1199,-3.1243,-3.1251,-3.1258,-3.1347,-3.1365,-3.1381,0,0,0,0,0,0,-3.1324,-3.1282,-3.1251,-3.1301,-3.1292,-3.1259,-3.129,-3.1251,-3.1254,-3.1245,-3.1192,-3.1187,-3.1233,-3.122,-3.118,-3.1267,-3.1208,-3.1216,-3.1274,-3.1292,-3.1305,-3.1308,-3.1101,0,0,0,0,0,-3.1351,-3.1367,-3.133,-3.1379,-3.1375,-3.1334,-3.134,-3.1307,-3.1296,-3.1292,-3.127,-3.1261,-3.1273,-3.1281,-3.129,-3.1351,-3.1345,-3.1383,-3.1397,-3.1409,-3.1417,-3.1449,-3.1466,-3.1286,-3.1286,-3.1286,0,0,-3.1407,-3.1386,-3.14,-3.1397,-3.1386,-3.1406,-3.1331,-3.1355,-3.1369,-3.1295,-3.133,-3.1314,-3.1301,-3.1351,-3.1372,-3.1342,-3.1465,-3.1418,-3.1428,-3.1429,-3.1459,-3.1476,-3.1491,-3.1291,-3.129,-3.1289,0,0,-3.1518,-3.1504,-3.1543,-3.1534,-3.1518,-3.149,-3.15,-3.1473,-3.1459,-3.1493,-3.1439,-3.1455,-3.1476,-3.1469,-3.1468,-3.1579,-3.1537,-3.1583,-3.1657,-3.1689,-3.1703,-3.1716,-3.1756,-3.1771,-3.1591,-3.1591,-3.1592,0,-3.159,-3.1616,-3.1568,-3.1595,-3.1596,-3.1531,-3.157,-3.1564,-3.1552,-3.1555,-3.152,-3.1546,-3.1532,-3.158,-3.1607,-3.1609,-3.1619,-3.1586,-3.1705,-3.1717,-3.1728,-3.1766,-3.1781,-3.1597,-3.1597,-3.1596,-3.1595,0,-3.1705,-3.1724,-3.1758,-3.1748,-3.1753,-3.1786,-3.1744,-3.1755,-3.1723,-3.1699,-3.1736,-3.1717,-3.1721,-3.173,-3.1699,-3.1775,-3.1756,-3.1714,-3.1653,-3.1752,-3.1786,-3.18,-3.1605,-3.1603,-3.1602,-3.16,0,0,-3.1875,-3.1839,-3.1852,-3.1847,-3.1826,-3.184,-3.1872,-3.1875,-3.1886,-3.188,-3.1906,-3.1925,-3.1887,-3.1886,-3.1853,-3.1882,-3.1972,-3.1836,-3.1835,-3.1863,-3.2055,-3.2087,-3.2105,-3.1944,-3.1947,-3.1949,-3.2057,0,-3.1981,-3.2031,-3.199,-3.2048,-3.2066,-3.2005,-3.2032,-3.2023,-3.2002,-3.2015,-3.1991,-3.2006,-3.1954,-3.1953,-3.1979,-3.1956,-3.201,-3.1947,-3.1968,-3.1969,-3.1974,-3.2123,-3.2156,-3.2259,-3.207,-3.2072,-3.2074,0,-3.2111,-3.2112,-3.2172,-3.2148,-3.2154,-3.2179,-3.2179,-3.2192,-3.218,-3.2163,-3.2163,-3.2123,-3.2153,-3.2094,-3.2135,-3.2093,-3.21,-3.209,-3.2093,-3.2093,-3.2028,-3.2128,-3.229,-3.2306,-3.2095,-3.2093,-3.2091,0,-3.223,-3.2246,-3.2284,-3.2282,-3.2254,-3.2274,-3.2263,-3.2248,-3.2254,-3.2254,-3.2257,-3.2262,-3.2265,-3.227,-3.2233,-3.2193,-3.2279,-3.2216,-3.2267,-3.2268,-3.2287,-3.2287,-3.2454,-3.2291,-3.2291,-3.2291,-3.2291,0,-3.2353,-3.2393,-3.2337,-3.2361,-3.2404,-3.2356,-3.24,-3.2384,-3.2371,-3.2391,-3.2339,-3.2359,-3.2308,-3.2324,-3.2295,-3.2334,-3.2336,-3.2323,-3.2315,-3.2328,-3.233,-3.2332,-3.2324,-3.2295,-3.2294,-3.2293,-3.2293,0,-3.2493,-3.2458,-3.2495,-3.2466,-3.246,-3.2493,-3.2469,-3.249,-3.2466,-3.2492,-3.2495,-3.2458,-3.2473,-3.2437,-3.2447,-3.2428,-3.2484,-3.2464,-3.2488,-3.2482,-3.2534,-3.253,-3.2709,-3.273,-3.2554,-3.2556,-3.2557,0,-3.2574,-3.2603,-3.2577,-3.2587,-3.2579,-3.2595,-3.26,-3.2555,-3.2563,-3.2553,-3.2575,-3.2586,-3.2592,-3.262,-3.2595,-3.2602,-3.2583,-3.2645,-3.2584,-3.2596,-3.2584,-3.2583,-3.2586,-3.2658,-3.266,-3.2662,-3.2663,0,-3.2722,-3.2703,-3.2712,-3.2715,-3.2723,-3.2723,-3.272,-3.2731,-3.2684,-3.2695,-3.271,-3.2715,-3.2725,-3.2737,-3.274,-3.2729,-3.2689,-3.2683,-3.2695,-3.2708,-3.2721,-3.2715,-3.2523,-3.2679,-3.2677,-3.2676,-3.2675,-3.2674,-3.2834,-3.2858,-3.2844,-3.2856,-3.2849,-3.2848,-3.2866,-3.2845,-3.2856,-3.2861,-3.2834,-3.2855,-3.2844,-3.2843,-3.2837,-3.2854,-3.2826,-3.2843,-3.2848,-3.2853,-3.2862,-3.2718,-3.2854,-3.2854,-3.2853,-3.2853,-3.2852,0,-3.298,-3.2968,-3.2979,-3.2977,-3.2987,-3.2948,-3.2943,-3.2954,-3.2973,-3.2966,-3.2973,-3.2991,-3.3003,-3.2979,-3.2987,-3.3005,-3.2986,-3.3008,-3.3007,-3.3005,-3.2886,-3.2875,-3.3023,-3.3023,-3.3023,-3.3023,-3.3023,-3.3023,-3.3056,-3.3094,-3.3074,-3.3108,-3.3096,-3.3116,-3.3116,-3.3116,-3.311,-3.3132,-3.3141,-3.3125,-3.3111,-3.3118,-3.3128,-3.312,-3.3126,-3.3155,-3.3141,-3.303,-3.3014,-3.2998,-3.2987,-3.3156,-3.3156,-3.3259,-3.326,-3.326]},{"header":{"parameterUnit":"m.s-1","parameterCategory":1,"la1":30.2991,"la2":30.254,"lo1":-89.0895,"lo2":-89.0444,"dy":0.0017,"dx":0.0017,"nx":28,"ny":28,"refTime":"2024-05-16T09:00:00:Z","depth":0,"parameterNumber":3,"parameterNumberName":"V-component_of_WINDS"},"data":[0,0,0,0,0,0,0,0,0,0,0,0,0,0,0,0,0,0,0,0,0,0,0,0,0,0,0,0,0,0,0,0,0,0,0,0,0,0,0,0,0,0,0,0,0,0,0,0,0,0,0,0,0,0,0,0,0,0,0.152,0.152,0,0.1516,0.1516,0.1515,0.1542,0.1543,0.1543,0.1544,0.1538,0.1537,0.1536,0,0,0,0,0,0,0,0,0,0,0,0,0,0.1551,0.155,0.152,0.152,0.152,0.1516,0.1516,0.1515,0.1542,0.1543,0.1544,0.1545,0.1538,0.1537,0.1536,0,0,0,0,0,0,0,0,0,0,0,0,0,0.1541,0.155,0.152,0.1533,0.1534,0.1516,0.1516,0.1515,0.1542,0.1543,0.1544,0.1545,0.1538,0.1537,0.1536,0.1505,0,0,0.1532,0.1531,0,0,0,0,0,0,0,0,0.1541,0.154,0.1531,0.1532,0.1533,0.1531,0.1524,0.1512,0.1541,0.1539,0.1544,0.1546,0.1534,0.1533,0.153,0.1505,0.1504,0.1532,0.1531,0.153,0.153,0,0,0,0,0,0,0,0.1542,0.154,0.1518,0.1531,0.1532,0.1538,0.1538,0.1522,0.153,0.1539,0.1541,0.154,0.1535,0.1531,0.153,0.1504,0.1532,0.1531,0.153,0.1529,0.1455,0.1453,0,0,0,0,0,0,0.1541,0.154,0.1518,0.1518,0.154,0.1537,0.1537,0.153,0.153,0.1531,0.1539,0.1541,0.1533,0.1532,0.153,0.1495,0.153,0.1529,0.1528,0.1456,0.1454,0.1453,0,0,0,0,0,0,0.1542,0.1539,0.1519,0.153,0.1528,0.1535,0.1528,0.1529,0.1526,0.153,0.1532,0.1534,0.1534,0.1532,0.1511,0.1495,0.1528,0.1527,0.1457,0.1455,0.1454,0.1423,0,0,0,0,0,0,0.1542,0.1539,0.1527,0.1529,0.1527,0.15,0.1526,0.1529,0.1523,0.1526,0.1526,0.1527,0.1534,0.1513,0.151,0.1493,0.1526,0.1459,0.1456,0.1454,0.1426,0.142,0.1416,0,0,0,0,0,0.1543,0.1518,0.1527,0.1524,0.1513,0.1499,0.1498,0.1508,0.1522,0.151,0.1514,0.1527,0.1497,0.1511,0.1508,0.149,0.146,0.1457,0.1454,0.1428,0.1421,0.1416,0,0,0,0,0,0,0.1513,0.1519,0.1528,0.1503,0.15,0.1504,0.1489,0.1501,0.1494,0.1496,0.1509,0.1508,0.1486,0.1486,0.1501,0.1461,0.1481,0.1477,0.1462,0.1456,0.1451,0.1451,0.1525,0,0,0,0,0,0.1503,0.1492,0.1498,0.1475,0.1473,0.1481,0.1476,0.1484,0.1482,0.1481,0.1482,0.1479,0.147,0.1463,0.1454,0.1426,0.1426,0.1413,0.1408,0.1404,0.1401,0.1387,0.1381,0.1444,0.1444,0.1444,0,0,0.1483,0.1485,0.1477,0.1469,0.1468,0.1456,0.148,0.1466,0.1458,0.1478,0.146,0.1461,0.1458,0.1434,0.1424,0.1434,0.1383,0.14,0.1397,0.1396,0.1383,0.1377,0.1372,0.1442,0.1443,0.1443,0,0,0.144,0.1441,0.1422,0.1421,0.142,0.1426,0.1422,0.1423,0.1425,0.1407,0.1423,0.1412,0.1395,0.1393,0.1389,0.1348,0.136,0.1345,0.1319,0.1306,0.1301,0.1297,0.1282,0.1277,0.1341,0.1341,0.1341,0,0.1415,0.1399,0.1411,0.1397,0.1393,0.1412,0.1394,0.1392,0.1387,0.1384,0.1396,0.1375,0.1375,0.1351,0.1341,0.1338,0.1333,0.1344,0.1301,0.1297,0.1293,0.1279,0.1274,0.134,0.134,0.134,0.134,0,0.1368,0.1356,0.1342,0.1338,0.1333,0.1316,0.1326,0.1319,0.1328,0.1333,0.1314,0.1315,0.1307,0.1302,0.131,0.1279,0.1286,0.1299,0.1319,0.1285,0.1272,0.1267,0.1337,0.1338,0.1338,0.1339,0,0,0.1305,0.131,0.1304,0.1304,0.1305,0.1296,0.128,0.1274,0.1268,0.1264,0.1252,0.1237,0.125,0.1246,0.1254,0.1242,0.121,0.1257,0.1257,0.1249,0.1178,0.1168,0.1162,0.1219,0.1218,0.1217,0.1178,0,0.1264,0.1239,0.125,0.1223,0.1213,0.1232,0.1219,0.1218,0.1222,0.1214,0.1219,0.1208,0.1225,0.1223,0.1213,0.1217,0.1196,0.1219,0.1207,0.1206,0.1207,0.1155,0.1145,0.1108,0.1173,0.1172,0.1172,0,0.1212,0.1208,0.1181,0.1185,0.1181,0.1169,0.1164,0.1156,0.1156,0.116,0.1156,0.1168,0.1153,0.1174,0.1154,0.1169,0.1165,0.1166,0.1165,0.1164,0.1187,0.1153,0.1096,0.1091,0.1164,0.1165,0.1165,0,0.1169,0.1157,0.1139,0.1138,0.1142,0.1134,0.1135,0.1136,0.1131,0.1127,0.1125,0.1118,0.1115,0.111,0.1119,0.1133,0.1099,0.112,0.1101,0.1101,0.1093,0.1093,0.1035,0.109,0.109,0.109,0.109,0,0.1122,0.1105,0.1121,0.111,0.1091,0.1105,0.1086,0.1089,0.109,0.108,0.1096,0.1086,0.1099,0.1091,0.1098,0.1081,0.1079,0.1082,0.1084,0.1081,0.108,0.1078,0.1081,0.1089,0.1089,0.1089,0.109,0,0.1071,0.1081,0.1063,0.1069,0.107,0.1057,0.1062,0.1052,0.1058,0.1045,0.1043,0.1052,0.1043,0.1052,0.1043,0.1049,0.1026,0.1031,0.1026,0.1028,0.1009,0.1011,0.0947,0.094,0.0999,0.0999,0.0998,0,0.104,0.1028,0.1033,0.1028,0.1029,0.102,0.1016,0.1029,0.1025,0.1024,0.1014,0.1007,0.1002,0.0987,0.0992,0.0986,0.0992,0.097,0.0991,0.0988,0.0992,0.0993,0.0992,0.0966,0.0965,0.0964,0.0964,0,0.0985,0.0991,0.0985,0.0981,0.0976,0.0974,0.0972,0.0967,0.0981,0.0975,0.0966,0.0962,0.0954,0.0947,0.0943,0.0944,0.0956,0.0958,0.0953,0.0949,0.0947,0.0949,0.1015,0.0959,0.0959,0.096,0.096,0.096,0.0943,0.0934,0.0936,0.0929,0.093,0.0929,0.092,0.0926,0.0919,0.0914,0.0922,0.0912,0.0913,0.0909,0.0909,0.0901,0.091,0.0903,0.0902,0.09,0.0897,0.0948,0.09,0.09,0.09,0.09,0.09,0,0.0889,0.0892,0.0886,0.0884,0.0879,0.0892,0.0892,0.0886,0.0877,0.0878,0.0873,0.0864,0.0857,0.0863,0.0857,0.085,0.0855,0.0848,0.0848,0.0849,0.0889,0.0894,0.0843,0.0843,0.0843,0.0843,0.0843,0.0843,0.0861,0.0845,0.0851,0.0836,0.084,0.083,0.0829,0.0828,0.0828,0.0818,0.0813,0.0817,0.0819,0.0814,0.0809,0.0811,0.0808,0.0799,0.0802,0.084,0.0846,0.0851,0.0855,0.0798,0.0798,0.0763,0.0762,0.0762]}]]